RANA Weather Reports


Display with metric or nautical units.
time (UTC)temp
F
wind
direction
speed
MPH
gust
MPH
rain 1hr
in
rain 24hr
in
rain mn
in
humidity
%
barometer
mb
20260902185011 66 305 4.0 4.0 0.00 0.00 0.00 54
20260902184510 68 308 4.0 7.0 0.00 0.00 0.00 54
20260902184010 68 311 4.0 7.0 0.00 0.00 0.00 53
20260902183511 68 317 4.0 4.0 0.00 0.00 0.00 53
20260902183010 68 320 7.0 7.0 0.00 0.00 0.00 53
20260902182510 68 320 7.0 7.0 0.00 0.00 0.00 52
20260902182012 68 317 7.0 9.0 0.00 0.00 0.00 52
20260902181011 68 314 7.0 9.0 0.00 0.00 0.00 51
20260902180511 68 312 7.0 9.0 0.00 0.00 0.00 50
20260902180010 68 299 9.0 11.0 0.00 0.00 0.00 50
20260902175510 66 313 7.0 9.0 0.00 0.00 0.00 51
20260902175011 66 313 7.0 7.0 0.00 0.00 0.00 52
20260902174510 64 342 4.0 4.0 0.00 0.00 0.00 56
20260902174010 64 344 9.0 11.0 0.00 0.00 0.00 59
20260902173510 64 342 7.0 9.0 0.00 0.00 0.00 64
20260902173011 68 318 11.0 11.0 0.00 0.00 0.00 58
20260902172510 68 331 7.0 7.0 0.00 0.00 0.00 52
20260902172017 68 352 2.0 4.0 0.00 0.00 0.00 54
20260902171511 68 317 2.0 4.0 0.00 0.00 0.00 51
20260902171011 68 322 7.0 7.0 0.00 0.00 0.00 49
20260902170510 68 318 7.0 9.0 0.00 0.00 0.00 49
20260902170011 68 318 7.0 7.0 0.00 0.00 0.00 50
20260902165511 68 333 7.0 7.0 0.00 0.00 0.00 50
20260902165010 68 328 7.0 9.0 0.00 0.00 0.00 49
20260902164511 68 328 9.0 11.0 0.00 0.00 0.00 48
20260902164009 68 321 7.0 7.0 0.00 0.00 0.00 50
20260902163511 68 331 9.0 11.0 0.00 0.00 0.00 49
20260902163004 68 311 7.0 9.0 0.00 0.00 0.00 50
20260902162510 68 314 7.0 9.0 0.00 0.00 0.00 46
20260902162011 68 311 7.0 7.0 0.00 0.00 0.00 49
20260902161510 66 331 7.0 9.0 0.00 0.00 0.00 56
20260902161009 68 319 13.0 16.0 0.00 0.00 0.00 59
20260902160510 70 304 7.0 7.0 0.00 0.00 0.00 48
20260902160010 70 305 4.0 7.0 0.00 0.00 0.00 46
20260902155511 70 312 2.0 4.0 0.00 0.00 0.00 47
20260902155011 72 318 2.0 4.0 0.00 0.00 0.00 47
20260902154510 72 317 2.0 4.0 0.00 0.00 0.00 46
20260902154011 72 313 4.0 7.0 0.00 0.00 0.00 46
20260902153511 72 308 11.0 13.0 0.00 0.00 0.00 44
20260902153010 72 310 9.0 11.0 0.00 0.00 0.00 45
20260902152511 72 317 7.0 9.0 0.00 0.00 0.00 46
20260902152012 72 327 9.0 11.0 0.00 0.00 0.00 45
20260902151511 72 284 18.0 20.0 0.00 0.00 0.00 43
20260902151011 73 281 9.0 11.0 0.00 0.00 0.00 41
20260902150510 73 272 18.0 20.0 0.00 0.00 0.00 40
20260902150010 73 280 13.0 16.0 0.00 0.00 0.00 40
20260902145510 73 266 18.0 20.0 0.00 0.00 0.00 40
20260902145010 72 274 13.0 16.0 0.00 0.00 0.00 41
20260902144510 72 280 16.0 18.0 0.00 0.00 0.00 41
20260902144009 73 285 16.0 18.0 0.00 0.00 0.00 41
20260902143510 73 270 13.0 16.0 0.00 0.00 0.00 42
20260902143010 72 279 11.0 18.0 0.00 0.00 0.00 42
20260902142511 72 295 13.0 16.0 0.00 0.00 0.00 42
20260902142018 72 272 16.0 18.0 0.00 0.00 0.00 40
20260902141510 72 266 18.0 20.0 0.00 0.00 0.00 42
20260902141011 72 268 13.0 16.0 0.00 0.00 0.00 41
20260902140511 72 276 16.0 18.0 0.00 0.00 0.00 41
20260902140011 72 275 16.0 18.0 0.00 0.00 0.00 40
20260902135510 72 266 22.0 22.0 0.00 0.00 0.00 40
20260902135010 72 268 16.0 18.0 0.00 0.00 0.00 40
20260902134511 72 290 11.0 13.0 0.00 0.00 0.00 39
20260902134010 72 278 18.0 20.0 0.00 0.00 0.00 38
20260902133510 73 246 9.0 11.0 0.00 0.00 0.00 37
20260902133010 73 246 13.0 18.0 0.00 0.00 0.00 37
20260902132510 73 272 13.0 16.0 0.00 0.00 0.00 36
20260902132016 73 235 9.0 11.0 0.00 0.00 0.00 37
20260902131510 73 211 13.0 16.0 0.00 0.00 0.00 33
20260902131010 73 225 13.0 20.0 0.00 0.00 0.00 32
20260902130510 73 250 16.0 20.0 0.00 0.00 0.00 32
20260902130010 73 266 11.0 13.0 0.00 0.00 0.00 39
20260902125510 72 283 16.0 20.0 0.00 0.00 0.00 38
20260902125010 73 285 13.0 16.0 0.00 0.00 0.00 38
20260902124510 73 273 20.0 22.0 0.00 0.00 0.00 38
20260902124011 73 254 11.0 13.0 0.00 0.00 0.00 39
20260902123510 73 280 13.0 16.0 0.00 0.00 0.00 41
20260902123011 72 281 16.0 18.0 0.00 0.00 0.00 41
20260902122510 72 260 13.0 16.0 0.00 0.00 0.00 41
20260902122013 72 282 20.0 22.0 0.00 0.00 0.00 40
20260902121510 73 264 13.0 18.0 0.00 0.00 0.00 39
20260902121011 73 249 7.0 7.0 0.00 0.00 0.00 42
20260902120518 72 261 4.0 7.0 0.00 0.00 0.00 46
20260902120011 70 292 7.0 9.0 0.00 0.00 0.00 48
20260902115510 70 272 9.0 11.0 0.00 0.00 0.00 47
20260902115010 70 284 9.0 9.0 0.00 0.00 0.00 48
20260902114511 70 279 16.0 18.0 0.00 0.00 0.00 46
20260902114011 70 274 7.0 11.0 0.00 0.00 0.00 47
20260902113511 73 189 9.0 11.0 0.00 0.00 0.00 46
20260902113014 73 226 2.0 7.0 0.00 0.00 0.00 47
20260902112510 72 195 4.0 4.0 0.00 0.00 0.00 48
20260902112017 72 229 4.0 4.0 0.00 0.00 0.00 49
20260902111509 73 258 4.0 7.0 0.00 0.00 0.00 45
20260902111011 72 208 7.0 9.0 0.00 0.00 0.00 48
20260902110510 73 238 4.0 7.0 0.00 0.00 0.00 47
20260902110011 72 185 7.0 9.0 0.00 0.00 0.00 48
20260902105510 73 245 4.0 7.0 0.00 0.00 0.00 46
20260902105010 72 257 4.0 7.0 0.00 0.00 0.00 49
20260902104509 72 269 7.0 9.0 0.00 0.00 0.00 48
20260902104010 73 245 7.0 11.0 0.00 0.00 0.00 50
20260902103510 72 173 7.0 9.0 0.00 0.00 0.00 52
20260902103011 72 159 2.0 4.0 0.00 0.00 0.00 52
20260902102511 70 207 7.0 7.0 0.00 0.00 0.00 54
20260902102011 72 196 4.0 7.0 0.00 0.00 0.00 50
20260902101511 70 198 7.0 7.0 0.00 0.00 0.00 51
20260902101010 72 191 4.0 7.0 0.00 0.00 0.00 51
20260902100518 72 200 4.0 7.0 0.00 0.00 0.00 52
20260902100011 73 206 2.0 7.0 0.00 0.00 0.00 48
20260902095510 72 194 4.0 7.0 0.00 0.00 0.00 53
20260902095010 72 222 2.0 2.0 0.00 0.00 0.00 55
20260902094510 72 207 2.0 4.0 0.00 0.00 0.00 54
20260902094004 70 235 4.0 4.0 0.00 0.00 0.00 55
20260902093511 72 202 4.0 4.0 0.00 0.00 0.00 50
20260902093011 72 214 4.0 7.0 0.00 0.00 0.00 51
20260902092511 70 155 2.0 4.0 0.00 0.00 0.00 56
20260902092020 72 230 2.0 4.0 0.00 0.00 0.00 54
20260902091510 70 194 2.0 2.0 0.00 0.00 0.00 57
20260902091010 68 270 2.0 2.0 0.00 0.00 0.00 60
20260902090510 68 275 2.0 2.0 0.00 0.00 0.00 59
20260902090011 68 257 2.0 4.0 0.00 0.00 0.00 59
20260902085510 68 276 2.0 4.0 0.00 0.00 0.00 57
20260902085011 70 265 4.0 4.0 0.00 0.00 0.00 54
20260902084510 68 252 2.0 4.0 0.00 0.00 0.00 56
20260902084010 68 258 2.0 4.0 0.00 0.00 0.00 56
20260902083510 70 212 0.0 0.0 0.00 0.00 0.00 54
20260902083011 70 247 2.0 2.0 0.00 0.00 0.00 54
20260902082510 72 243 0.0 2.0 0.00 0.00 0.00 54
20260902082016 72 232 0.0 0.0 0.00 0.00 0.00 51
20260902081511 73 205 0.0 2.0 0.00 0.00 0.00 49
20260902081011 72 234 0.0 0.0 0.00 0.00 0.00 53
20260902080510 70 165 2.0 7.0 0.00 0.00 0.00 55
20260902080010 68 147 0.0 2.0 0.00 0.00 0.00 57
20260902075514 70 143 2.0 4.0 0.00 0.00 0.00 55
20260902075010 72 0 0.0 0.0 0.00 0.00 0.00 51
20260902074511 66 285 0.0 0.0 0.00 0.00 0.00 58
20260902074014 64 285 2.0 2.0 0.00 0.00 0.00 60
20260902073511 64 286 2.0 2.0 0.00 0.00 0.00 63
20260902073011 63 289 4.0 4.0 0.00 0.00 0.00 63
20260902072511 63 289 4.0 4.0 0.00 0.00 0.00 65
20260902072012 63 295 2.0 4.0 0.00 0.00 0.00 65
20260902071510 63 290 4.0 4.0 0.00 0.00 0.00 65
20260902071011 63 283 4.0 4.0 0.00 0.00 0.00 65
20260902070518 63 278 7.0 7.0 0.00 0.00 0.00 63
20260902070011 63 291 2.0 4.0 0.00 0.00 0.00 62
20260902065511 64 273 2.0 2.0 0.00 0.00 0.00 60
20260902065010 64 251 2.0 2.0 0.00 0.00 0.00 62
20260902064511 64 267 2.0 2.0 0.00 0.00 0.00 62
20260902064010 64 275 2.0 2.0 0.00 0.00 0.00 62
20260902063511 63 278 2.0 4.0 0.00 0.00 0.00 64
20260902063010 63 266 4.0 4.0 0.00 0.00 0.00 64
20260902062510 61 263 4.0 4.0 0.00 0.00 0.00 68
20260902062013 59 279 7.0 7.0 0.00 0.00 0.00 71
20260902061510 59 287 9.0 9.0 0.00 0.00 0.00 72
20260902061008 57 284 9.0 11.0 0.00 0.00 0.00 73
20260902060511 57 285 9.0 11.0 0.00 0.00 0.00 75
20260902060011 57 279 9.0 11.0 0.00 0.00 0.00 75
20260902055510 57 287 9.0 11.0 0.00 0.00 0.00 75
20260902055009 57 285 9.0 11.0 0.00 0.00 0.00 76
20260902054511 57 279 9.0 11.0 0.00 0.00 0.00 76
20260902054010 57 277 9.0 11.0 0.00 0.00 0.00 76
20260902053511 57 279 11.0 11.0 0.00 0.00 0.00 77
20260902053010 57 283 9.0 11.0 0.00 0.00 0.00 76
20260902052510 57 285 9.0 9.0 0.00 0.00 0.00 76
20260902052017 57 285 9.0 9.0 0.00 0.00 0.00 77
20260902051510 55 279 11.0 11.0 0.00 0.00 0.00 79
20260902051010 55 278 9.0 11.0 0.00 0.00 0.00 79
20260902050510 55 278 11.0 13.0 0.00 0.00 0.00 78
20260902050010 55 281 13.0 13.0 0.00 0.00 0.00 77
20260902045511 55 283 13.0 16.0 0.00 0.00 0.00 77
20260902045010 55 283 13.0 13.0 0.00 0.00 0.00 78
20260902044511 55 280 11.0 13.0 0.00 0.00 0.00 79
20260902044010 55 281 11.0 11.0 0.00 0.00 0.00 79
20260902043510 55 285 9.0 11.0 0.00 0.00 0.00 79
20260902043011 55 284 9.0 9.0 0.00 0.00 0.00 79
20260902042512 55 284 9.0 11.0 0.00 0.00 0.00 79
20260902042010 55 281 11.0 11.0 0.00 0.00 0.00 79
20260902041511 57 282 11.0 11.0 0.00 0.00 0.00 79
20260902041010 57 284 9.0 11.0 0.00 0.00 0.00 78
20260902040511 57 280 9.0 9.0 0.00 0.00 0.00 77
20260902040010 59 280 9.0 9.0 0.00 0.00 0.00 77
20260902035509 59 274 9.0 9.0 0.00 0.00 0.00 76
20260902035011 59 279 7.0 7.0 0.00 0.00 0.00 76
20260902034511 57 276 7.0 9.0 0.00 0.00 0.00 77
20260902034011 57 279 7.0 7.0 0.00 0.00 0.00 79
20260902033510 57 286 7.0 7.0 0.00 0.00 0.00 79
20260902033011 57 287 7.0 9.0 0.00 0.00 0.00 79
20260902032511 57 282 7.0 7.0 0.00 0.00 0.00 79
20260902032011 57 285 7.0 7.0 0.00 0.00 0.00 78
20260902031011 59 291 7.0 7.0 0.00 0.00 0.00 76
20260902030510 59 290 7.0 7.0 0.00 0.00 0.00 76
20260902030011 59 292 7.0 9.0 0.00 0.00 0.00 75
20260902025510 59 294 7.0 7.0 0.00 0.00 0.00 76
20260902025011 59 296 7.0 7.0 0.00 0.00 0.00 76
20260902024510 59 294 7.0 9.0 0.00 0.00 0.00 76
20260902024010 59 296 7.0 7.0 0.00 0.00 0.00 76
20260902023511 59 294 7.0 9.0 0.00 0.00 0.00 75
20260902023010 59 296 7.0 9.0 0.00 0.00 0.00 76
20260902022510 59 294 7.0 9.0 0.00 0.00 0.00 76
20260902022016 59 298 9.0 11.0 0.00 0.00 0.00 75
20260902021511 59 300 9.0 11.0 0.00 0.00 0.00 75
20260902021009 59 296 9.0 9.0 0.00 0.00 0.00 75
20260902020510 59 299 9.0 9.0 0.00 0.00 0.00 74
20260902020010 59 294 9.0 9.0 0.00 0.00 0.00 74
20260902015504 59 293 9.0 9.0 0.00 0.00 0.00 74
20260902015009 59 296 9.0 9.0 0.00 0.00 0.00 74
20260902014511 59 296 9.0 9.0 0.00 0.00 0.00 75
20260902014011 59 302 9.0 9.0 0.00 0.00 0.00 75
20260902013510 59 307 9.0 9.0 0.00 0.00 0.00 74
20260902013010 59 301 9.0 11.0 0.00 0.00 0.00 75
20260902012511 59 302 9.0 9.0 0.00 0.00 0.00 74
20260902012015 59 303 9.0 9.0 0.00 0.00 0.00 73
20260902011511 59 301 9.0 9.0 0.00 0.00 0.00 73
20260902011010 59 304 7.0 9.0 0.00 0.00 0.00 73
20260902010511 59 295 7.0 9.0 0.00 0.00 0.00 73
20260902010004 59 296 9.0 9.0 0.00 0.00 0.00 72
20260902005510 59 293 9.0 9.0 0.00 0.00 0.00 72
20260902005011 59 303 9.0 9.0 0.00 0.00 0.00 72
20260902004510 59 306 9.0 9.0 0.00 0.00 0.00 72
20260902003511 59 304 7.0 9.0 0.00 0.00 0.00 71
20260902003011 59 303 7.0 9.0 0.00 0.00 0.00 72
20260902002509 59 296 7.0 9.0 0.00 0.00 0.00 72
20260902002012 59 305 9.0 9.0 0.00 0.00 0.00 72
20260902001510 59 298 9.0 9.0 0.00 0.00 0.00 71
20260902001010 59 299 9.0 9.0 0.00 0.00 0.00 70
20260902000511 59 288 9.0 11.0 0.00 0.00 0.00 69
20260902000010 59 283 11.0 11.0 0.00 0.00 0.00 68
20260901235510 59 291 13.0 13.0 0.00 0.00 0.00 69
20260901235011 59 285 16.0 18.0 0.00 0.00 0.00 68
20260901234510 59 286 13.0 16.0 0.00 0.00 0.00 67
20260901234011 61 286 13.0 16.0 0.00 0.00 0.00 66
20260901233510 59 277 16.0 16.0 0.00 0.00 0.00 66
20260901233010 59 268 16.0 16.0 0.00 0.00 0.00 67
20260901232510 59 281 13.0 16.0 0.00 0.00 0.00 66
20260901232017 59 271 16.0 18.0 0.00 0.00 0.00 67
20260901231511 59 272 13.0 13.0 0.00 0.00 0.00 66
20260901231011 61 265 11.0 13.0 0.00 0.00 0.00 64
20260901230510 61 251 16.0 16.0 0.00 0.00 0.00 62
20260901230010 61 248 13.0 16.0 0.00 0.00 0.00 62
20260901225511 61 248 13.0 13.0 0.00 0.00 0.00 62
20260901225010 61 245 11.0 13.0 0.00 0.00 0.00 62
20260901224511 61 250 11.0 11.0 0.00 0.00 0.00 63
20260901224011 61 248 11.0 11.0 0.00 0.00 0.00 63
20260901223510 61 253 11.0 11.0 0.00 0.00 0.00 64
20260901223011 61 253 11.0 11.0 0.00 0.00 0.00 62
20260901222510 63 247 11.0 11.0 0.00 0.00 0.00 61
20260901222010 63 244 11.0 11.0 0.00 0.00 0.00 61
20260901221510 63 239 9.0 11.0 0.00 0.00 0.00 61
20260901221010 63 237 11.0 11.0 0.00 0.00 0.00 60
20260901220510 63 243 9.0 9.0 0.00 0.00 0.00 60
20260901220011 63 251 9.0 9.0 0.00 0.00 0.00 60
20260901215511 64 266 7.0 7.0 0.00 0.00 0.00 60
20260901215010 64 273 7.0 7.0 0.00 0.00 0.00 60
20260901214511 64 280 7.0 7.0 0.00 0.00 0.00 60
20260901214010 64 282 7.0 7.0 0.00 0.00 0.00 59
20260901213510 64 286 9.0 9.0 0.00 0.00 0.00 58
20260901213011 64 283 9.0 9.0 0.00 0.00 0.00 58
20260901212510 64 283 9.0 9.0 0.00 0.00 0.00 59
20260901212012 64 284 9.0 9.0 0.00 0.00 0.00 59
20260901211510 64 285 9.0 9.0 0.00 0.00 0.00 59
20260901210510 64 289 7.0 9.0 0.00 0.00 0.00 59
20260901210010 64 285 7.0 9.0 0.00 0.00 0.00 60
20260901205510 64 288 7.0 9.0 0.00 0.00 0.00 59
20260901205011 64 287 7.0 9.0 0.00 0.00 0.00 59
20260901204510 64 295 4.0 7.0 0.00 0.00 0.00 58
20260901204010 64 296 7.0 9.0 0.00 0.00 0.00 58
20260901203511 64 305 7.0 7.0 0.00 0.00 0.00 58
20260901203011 64 304 7.0 9.0 0.00 0.00 0.00 57
20260901202510 64 298 7.0 9.0 0.00 0.00 0.00 56
20260901202015 64 299 7.0 9.0 0.00 0.00 0.00 58
20260901201509 64 297 7.0 9.0 0.00 0.00 0.00 59
20260901201010 64 295 7.0 7.0 0.00 0.00 0.00 57
20260901200510 64 300 7.0 9.0 0.00 0.00 0.00 56
20260901200011 64 298 9.0 9.0 0.00 0.00 0.00 59
20260901195511 64 295 7.0 9.0 0.00 0.00 0.00 59
20260901195010 64 294 9.0 9.0 0.00 0.00 0.00 58
20260901194510 64 287 9.0 9.0 0.00 0.00 0.00 58
20260901194009 64 287 9.0 9.0 0.00 0.00 0.00 57
20260901193511 64 282 9.0 9.0 0.00 0.00 0.00 57
20260901193010 66 281 9.0 9.0 0.00 0.00 0.00 57
20260901192511 66 283 9.0 9.0 0.00 0.00 0.00 57
20260901192017 66 284 9.0 9.0 0.00 0.00 0.00 57
20260901191511 66 287 9.0 9.0 0.00 0.00 0.00 57
20260901191011 66 274 9.0 9.0 0.00 0.00 0.00 56
20260901190510 66 265 7.0 9.0 0.00 0.00 0.00 55
20260901190010 66 272 9.0 9.0 0.00 0.00 0.00 54
20260901185511 66 272 11.0 11.0 0.00 0.00 0.00 54